User: anonymous   Login
Location: Bluff Heights
(33.7692°N, 118.1592°W)
Time: 12:10:14
(UTC+00:00)
Language:

A-11 Canister half - Orbit

View from above orbital plane
View from above orbital plane
View from above satellite
View from above satellite

Ground track
Ground track

The orbit data is extracted from the following two-line orbital elements,

1    53U 60009E   21216.04407658 -.00000043  00000-0  40343-3 0  9994
2    53  47.2776  66.6160 0097199 220.2387 139.1176 12.17257033718822
Epoch (UTC): 04 August 2021 01:03:28
Eccentricity: 0.0097199
inclination: 47.2776°
perigee height: 1527 km
apogee height: 1682 km
right ascension of ascending node: 66.6160°
argument of perigee: 220.2387°
revolutions per day: 12.17257033
mean anomaly at epoch: 139.1176°
orbit number at epoch: 71882

The dashed part of the orbit path shows where the satellite is in the earth's shadow,  

DLR